Time,TemperatureF,DewpointF,PressureIn,WindDirection,WindDirectionDegrees,WindSpeedMPH,WindSpeedGustMPH,Humidity,HourlyPrecipIn,Conditions,Clouds,dailyrainin,SolarRadiationWatts/m^2,SoftwareType,DateUTC
2013-10-13 00:01:00,56.0,35.0,-100.00,ESE,123,5.0,11.0,45,0.00,,,0.00,0.000000,,2013-10-13 06:01:00,
2013-10-13 00:22:00,56.0,35.0,-100.00,ESE,123,5.0,11.0,45,0.00,,,0.00,0.000000,,2013-10-13 06:22:00,
2013-10-13 00:32:00,56.0,35.0,-100.00,ESE,123,5.0,11.0,45,0.00,,,0.00,0.000000,,2013-10-13 06:32:00,
2013-10-13 00:42:00,56.0,35.0,-100.00,ESE,123,5.0,11.0,45,0.00,,,0.00,0.000000,,2013-10-13 06:42:00,
2013-10-13 00:52:00,56.0,35.0,-100.00,ESE,123,5.0,11.0,45,0.00,,,0.00,0.000000,,2013-10-13 06:52:00,
2013-10-13 01:01:00,56.0,36.0,-100.00,SSE,162,4.0,11.0,46,0.00,,,0.00,0.000000,,2013-10-13 07:01:00,
2013-10-13 01:42:00,56.0,36.0,-100.00,SSE,162,4.0,11.0,46,0.00,,,0.00,0.000000,,2013-10-13 07:42:00,
2013-10-13 01:52:00,56.0,36.0,-100.00,SSE,162,4.0,11.0,46,0.00,,,0.00,0.000000,,2013-10-13 07:52:00,
2013-10-13 02:01:00,57.0,38.0,-100.00,SE,141,7.0,14.0,49,0.00,,,0.00,0.000000,,2013-10-13 08:01:00,
2013-10-13 02:22:00,57.0,38.0,-100.00,SE,141,7.0,14.0,49,0.00,,,0.00,0.000000,,2013-10-13 08:22:00,
2013-10-13 02:32:00,57.0,38.0,-100.00,SE,141,7.0,14.0,49,0.00,,,0.00,0.000000,,2013-10-13 08:32:00,
2013-10-13 02:42:00,57.0,38.0,-100.00,SE,141,7.0,14.0,49,0.00,,,0.00,0.000000,,2013-10-13 08:42:00,
2013-10-13 02:52:00,57.0,38.0,-100.00,SE,141,7.0,14.0,49,0.00,,,0.00,0.000000,,2013-10-13 08:52:00,
2013-10-13 03:01:00,58.0,43.0,-100.00,SE,144,8.0,15.0,58,0.00,,,-99.99,0.000000,,2013-10-13 09:01:00,
2013-10-13 03:43:00,58.0,43.0,-100.00,SE,144,8.0,15.0,58,0.00,,,-99.99,0.000000,,2013-10-13 09:43:00,
2013-10-13 03:53:00,58.0,43.0,-100.00,SE,144,8.0,15.0,58,0.00,,,-99.99,0.000000,,2013-10-13 09:53:00,
2013-10-13 04:01:00,58.0,44.0,-100.00,SE,126,7.0,12.0,60,0.00,,,0.00,0.000000,,2013-10-13 10:01:00,
2013-10-13 04:43:00,58.0,44.0,-100.00,SE,126,7.0,12.0,60,0.00,,,0.00,0.000000,,2013-10-13 10:43:00,
2013-10-13 04:53:00,58.0,44.0,-100.00,SE,126,7.0,12.0,60,0.00,,,0.00,0.000000,,2013-10-13 10:53:00,
2013-10-13 05:01:00,59.0,46.0,-100.00,SE,130,11.0,18.0,62,0.00,,,0.00,0.000000,,2013-10-13 11:01:00,
2013-10-13 05:22:00,59.0,46.0,-100.00,SE,130,11.0,18.0,62,0.00,,,0.00,0.000000,,2013-10-13 11:22:00,
2013-10-13 05:33:00,59.0,46.0,-100.00,SE,130,11.0,18.0,62,0.00,,,0.00,0.000000,,2013-10-13 11:33:00,
2013-10-13 05:42:00,59.0,46.0,-100.00,SE,130,11.0,18.0,62,0.00,,,0.00,0.000000,,2013-10-13 11:42:00,
2013-10-13 05:52:00,59.0,46.0,-100.00,SE,130,11.0,18.0,62,0.00,,,0.00,0.000000,,2013-10-13 11:52:00,
2013-10-13 06:01:00,57.0,44.0,-100.00,SSE,154,7.0,16.0,62,0.00,,,0.00,0.000000,,2013-10-13 12:01:00,
2013-10-13 06:42:00,57.0,44.0,-100.00,SSE,154,7.0,16.0,62,0.00,,,0.00,0.000000,,2013-10-13 12:42:00,
2013-10-13 06:52:00,57.0,44.0,-100.00,SSE,154,7.0,16.0,62,0.00,,,0.00,0.000000,,2013-10-13 12:52:00,
2013-10-13 07:01:00,53.0,44.0,-100.00,SE,127,3.0,8.0,72,0.00,,,0.00,0.000000,,2013-10-13 13:01:00,
2013-10-13 07:42:00,53.0,44.0,-100.00,SE,127,3.0,8.0,72,0.00,,,0.00,0.000000,,2013-10-13 13:42:00,
2013-10-13 07:52:00,53.0,44.0,-100.00,SE,127,3.0,8.0,72,0.00,,,0.00,0.000000,,2013-10-13 13:52:00,
2013-10-13 08:01:00,56.0,46.0,-100.00,SE,131,3.0,8.0,69,0.00,,,0.00,24.000000,,2013-10-13 14:01:00,
2013-10-13 08:42:00,56.0,46.0,-100.00,SE,131,3.0,8.0,69,0.00,,,0.00,24.000000,,2013-10-13 14:42:00,
2013-10-13 08:52:00,56.0,46.0,-100.00,SE,131,3.0,8.0,69,0.00,,,0.00,24.000000,,2013-10-13 14:52:00,
2013-10-13 09:01:00,63.0,48.0,-100.00,SSE,158,8.0,12.0,58,0.00,,,0.00,219.000000,,2013-10-13 15:01:00,
2013-10-13 09:43:00,63.0,48.0,-100.00,SSE,158,8.0,12.0,58,0.00,,,0.00,219.000000,,2013-10-13 15:43:00,
2013-10-13 09:54:00,63.0,48.0,-100.00,SSE,158,8.0,12.0,58,0.00,,,0.00,219.000000,,2013-10-13 15:54:00,
2013-10-13 10:01:00,67.0,50.0,-100.00,SSE,152,9.0,12.0,54,0.00,,,0.00,446.000000,,2013-10-13 16:01:00,
2013-10-13 10:43:00,67.0,50.0,-100.00,SSE,152,9.0,12.0,54,0.00,,,0.00,446.000000,,2013-10-13 16:43:00,
2013-10-13 10:54:00,67.0,50.0,-100.00,SSE,152,9.0,12.0,54,0.00,,,0.00,446.000000,,2013-10-13 16:54:00,
2013-10-13 11:01:00,71.0,47.0,-100.00,SSE,167,7.0,11.0,43,0.00,,,0.00,630.000000,,2013-10-13 17:01:00,
2013-10-13 11:43:00,71.0,47.0,-100.00,SSE,167,7.0,11.0,43,0.00,,,0.00,630.000000,,2013-10-13 17:43:00,
2013-10-13 11:52:00,71.0,47.0,-100.00,SSE,167,7.0,11.0,43,0.00,,,0.00,630.000000,,2013-10-13 17:52:00,
2013-10-13 12:01:00,71.0,47.0,-100.00,SE,140,11.0,15.0,43,0.00,,,0.00,767.000000,,2013-10-13 18:01:00,
2013-10-13 12:42:00,71.0,47.0,-100.00,SE,140,11.0,15.0,43,0.00,,,0.00,767.000000,,2013-10-13 18:42:00,
2013-10-13 12:52:00,71.0,47.0,-100.00,SE,140,11.0,15.0,43,0.00,,,0.00,767.000000,,2013-10-13 18:52:00,
2013-10-13 13:01:00,72.0,45.0,-100.00,WSW,238,7.0,17.0,38,0.00,,,0.00,665.000000,,2013-10-13 19:01:00,
2013-10-13 13:22:00,72.0,45.0,-100.00,WSW,238,7.0,17.0,38,0.00,,,0.00,665.000000,,2013-10-13 19:22:00,
2013-10-13 13:32:00,72.0,45.0,-100.00,WSW,238,7.0,17.0,38,0.00,,,0.00,665.000000,,2013-10-13 19:32:00,
2013-10-13 13:42:00,72.0,45.0,-100.00,WSW,238,7.0,17.0,38,0.00,,,0.00,665.000000,,2013-10-13 19:42:00,
2013-10-13 13:53:00,72.0,45.0,-100.00,WSW,238,7.0,17.0,38,0.00,,,0.00,665.000000,,2013-10-13 19:53:00,
2013-10-13 14:01:00,73.0,42.0,-100.00,South,170,10.0,19.0,33,0.00,,,0.00,678.000000,,2013-10-13 20:01:00,
2013-10-13 14:43:00,73.0,42.0,-100.00,South,170,10.0,19.0,33,0.00,,,0.00,678.000000,,2013-10-13 20:43:00,
2013-10-13 14:52:00,73.0,42.0,-100.00,South,170,10.0,19.0,33,0.00,,,0.00,678.000000,,2013-10-13 20:52:00,
2013-10-13 15:01:00,74.0,45.0,-100.00,SW,221,11.0,20.0,35,0.00,,,0.00,544.000000,,2013-10-13 21:01:00,
2013-10-13 15:44:00,74.0,45.0,-100.00,SW,221,11.0,20.0,35,0.00,,,0.00,544.000000,,2013-10-13 21:44:00,
2013-10-13 15:55:00,74.0,45.0,-100.00,SW,221,11.0,20.0,35,0.00,,,0.00,544.000000,,2013-10-13 21:55:00,
2013-10-13 16:01:00,72.0,44.0,-100.00,SW,229,11.0,21.0,36,0.00,,,0.00,376.000000,,2013-10-13 22:01:00,
2013-10-13 16:24:00,72.0,44.0,-100.00,SW,229,11.0,21.0,36,0.00,,,0.00,376.000000,,2013-10-13 22:24:00,
2013-10-13 16:32:00,72.0,44.0,-100.00,SW,229,11.0,21.0,36,0.00,,,0.00,376.000000,,2013-10-13 22:32:00,
2013-10-13 16:43:00,72.0,44.0,-100.00,SW,229,11.0,21.0,36,0.00,,,0.00,376.000000,,2013-10-13 22:43:00,
2013-10-13 16:53:00,72.0,44.0,-100.00,SW,229,11.0,21.0,36,0.00,,,0.00,376.000000,,2013-10-13 22:53:00,
2013-10-13 17:01:00,70.0,41.0,-100.00,South,174,12.0,24.0,35,0.00,,,0.00,361.000000,,2013-10-13 23:01:00,
2013-10-13 17:42:00,70.0,41.0,-100.00,South,174,12.0,24.0,35,0.00,,,0.00,361.000000,,2013-10-13 23:42:00,
2013-10-13 17:52:00,70.0,41.0,-100.00,South,174,12.0,24.0,35,0.00,,,0.00,361.000000,,2013-10-13 23:52:00,
2013-10-13 18:01:00,69.0,41.0,-100.00,South,171,11.0,20.0,36,0.00,,,0.00,152.000000,,2013-10-14 00:01:00,
2013-10-13 18:22:00,69.0,41.0,-100.00,South,171,11.0,20.0,36,0.00,,,0.00,152.000000,,2013-10-14 00:22:00,
2013-10-13 18:32:00,69.0,41.0,-100.00,South,171,11.0,20.0,36,0.00,,,0.00,152.000000,,2013-10-14 00:32:00,
2013-10-13 18:42:00,69.0,41.0,-100.00,South,171,11.0,20.0,36,0.00,,,0.00,152.000000,,2013-10-14 00:42:00,
2013-10-13 18:52:00,69.0,41.0,-100.00,South,171,11.0,20.0,36,0.00,,,0.00,152.000000,,2013-10-14 00:52:00,
2013-10-13 19:01:00,67.0,40.0,-100.00,South,175,10.0,20.0,37,0.00,,,0.00,14.000000,,2013-10-14 01:01:00,
2013-10-13 19:42:00,67.0,40.0,-100.00,South,175,10.0,20.0,37,0.00,,,0.00,14.000000,,2013-10-14 01:42:00,
2013-10-13 19:52:00,67.0,40.0,-100.00,South,175,10.0,20.0,37,0.00,,,0.00,14.000000,,2013-10-14 01:52:00,
2013-10-13 20:01:00,66.0,37.0,-100.00,South,170,9.0,18.0,34,0.00,,,0.00,0.000000,,2013-10-14 02:01:00,
2013-10-13 20:42:00,66.0,37.0,-100.00,South,170,9.0,18.0,34,0.00,,,0.00,0.000000,,2013-10-14 02:42:00,
2013-10-13 20:52:00,66.0,37.0,-100.00,South,170,9.0,18.0,34,0.00,,,0.00,0.000000,,2013-10-14 02:52:00,
2013-10-13 21:01:00,67.0,37.0,-100.00,South,190,10.0,21.0,33,0.00,,,0.00,0.000000,,2013-10-14 03:01:00,
2013-10-13 21:44:00,67.0,37.0,-100.00,South,190,10.0,21.0,33,0.00,,,0.00,0.000000,,2013-10-14 03:44:00,
2013-10-13 21:55:00,67.0,37.0,-100.00,South,190,10.0,21.0,33,0.00,,,0.00,0.000000,,2013-10-14 03:55:00,
2013-10-13 22:01:00,66.0,41.0,-100.00,South,188,12.0,25.0,40,0.00,,,0.00,0.000000,,2013-10-14 04:01:00,
2013-10-13 22:44:00,66.0,41.0,-100.00,South,188,12.0,25.0,40,0.00,,,0.00,0.000000,,2013-10-14 04:44:00,
2013-10-13 22:54:00,66.0,41.0,-100.00,South,188,12.0,25.0,40,0.00,,,0.00,0.000000,,2013-10-14 04:54:00,
2013-10-13 23:01:00,64.0,43.0,-100.00,South,191,12.0,25.0,47,0.00,,,0.00,0.000000,,2013-10-14 05:01:00,
2013-10-13 23:43:00,64.0,43.0,-100.00,South,191,12.0,25.0,47,0.00,,,0.00,0.000000,,2013-10-14 05:43:00,
2013-10-13 23:52:00,64.0,43.0,-100.00,South,191,12.0,25.0,47,0.00,,,0.00,0.000000,,2013-10-14 05:52:00,